AEHF-5 (USA 292)

Last updated on Sat Mar 14 2026 00:02:56 GMT+0000 (Coordinated Universal Time)

1 44481U 19051A 26072.58861897 -.00000257 00000+0 00000+0 0 9999 2 44481 1.5531 329.2844 0071211 3.3735 143.5072 1.00269308 24303
UTC large
Height (km)
Speed (km/s)
/
Latitude / Longitude
Inclination (degrees)
Orbital Period (minutes)
Azimuth
Elevation
Range (km)
Doppler Factor

Next 0 passes for location: London (51.5072 / 0.1276)

Sorry there are no passes over London.